Weather in Soboba Springs

United States     33°49′30″N   116°56′38″W
temp.,
°C
wind,
m/s
gust,
m/s
humid.,
%
clouds,
%
prec.,
mm/h
press.,
hPa
HPBL,
m
28 may, sat
sat2823:00+12ssw228799 0.0 101515
02:00+10ssw119533 0.0 101411
05:00+10ssw119286 0.0 1014187
08:00+11s1290100 0.1 1015414
11:00+14sw227380 0.1 1014610
14:00+21sw244645 0.0 10111237
17:00+22sw5546100 0.0 10091243
20:00+14ssw337970 0.0 101079
29 may, sun
sun2923:00+12s238798 0.0 1011318
02:00+13s238498 0.0 1009422
05:00+12s228695 0.0 1009371
08:00+13ssw127777 0.0 1009515
11:00+19sw334923 0.0 10081053
14:00+26w45270 0.0 10051694
17:00+23ssw76430 0.0 10051239
20:00+15ssw34750 0.0 100760
30 may, mon
mon3023:00+12s22900 0.0 100813
02:00+9se11949 0.0 100810
05:00+8sse11934 0.0 100810
08:00+15nw11590 0.0 1009293
11:00+23wnw22210 0.0 1007847
14:00+29w44110 0.0 10052011
17:00+25ssw76300 0.0 10061160
20:00+16ssw22540 0.0 100815
31 may, tue
tue3123:00+13sse11680 0.0 100911
02:00+12s11720 0.0 100811
05:00+11ese00720 0.0 100811
08:00+19wnw11400 0.0 1009251
11:00+27wsw32230 0.0 10071032
14:00+31sw54160 0.0 10052045
17:00+28sw65230 0.0 10061067
20:00+18sw22470 0.0 100811
1 june, wed
wed123:00+14sse11620 0.0 100911
02:00+14ssw11660 0.0 100911
05:00+13n00690 0.0 100911
08:00+21w11350 0.0 1009218
11:00+29w32200 0.0 1008881
14:00+34sw64160 0.0 10061642
17:00+29sw44240 0.0 1006871
20:00+19sw22463 0.0 100811